AZU4451 SBIZ-SBTE

Flight info

Callsign AZU4451
Flight time 1h 18m
Altitude 23000
Route DCT
Aircraft AT76/M-SDFGIRY/S

Departure

Time 2026-04-26 04:50
Airport Prefeito Renato Moreira Airport (SBIZ)

Arrival

Time 2026-04-26 06:08
Airport Senador Petrônio Portela Airport (SBTE)
Time Latitude Longitude Altitude Speed Heading
2026-04-26 03:58 -5.53140 -47.45657 425 ft 0 kts 144°
2026-04-26 04:35 -5.53136 -47.45660 432 ft 2 kts 144°
2026-04-26 04:36 -5.53126 -47.45667 425 ft 3 kts 144°
2026-04-26 04:36 -5.53110 -47.45679 429 ft 3 kts 143°
2026-04-26 04:36 -5.53089 -47.45695 423 ft 2 kts 143°
2026-04-26 04:36 -5.53085 -47.45697 424 ft 0 kts 143°
2026-04-26 04:40 -5.53094 -47.45694 427 ft 2 kts 168°
2026-04-26 04:41 -5.53115 -47.45702 433 ft 5 kts 217°
2026-04-26 04:41 -5.53141 -47.45734 433 ft 7 kts 233°
2026-04-26 04:41 -5.53172 -47.45778 430 ft 7 kts 243°
2026-04-26 04:41 -5.53159 -47.45815 425 ft 6 kts 323°
2026-04-26 04:42 -5.53120 -47.45843 431 ft 4 kts 324°
2026-04-26 04:42 -5.53119 -47.45843 431 ft 0 kts 324°
2026-04-26 04:45 -5.53100 -47.45856 429 ft 5 kts 324°
2026-04-26 04:45 -5.53067 -47.45891 429 ft 8 kts 291°
2026-04-26 04:46 -5.53088 -47.45943 432 ft 9 kts 234°
2026-04-26 04:46 -5.53130 -47.46001 432 ft 11 kts 233°
2026-04-26 04:46 -5.53175 -47.46063 428 ft 11 kts 234°
2026-04-26 04:46 -5.53221 -47.46126 432 ft 11 kts 233°
2026-04-26 04:47 -5.53268 -47.46190 430 ft 11 kts 234°
2026-04-26 04:47 -5.53314 -47.46254 430 ft 11 kts 233°
2026-04-26 04:47 -5.53361 -47.46318 433 ft 11 kts 234°
2026-04-26 04:47 -5.53406 -47.46380 430 ft 11 kts 233°
2026-04-26 04:48 -5.53491 -47.46496 435 ft 10 kts 233°
2026-04-26 04:48 -5.53535 -47.46557 434 ft 11 kts 234°
2026-04-26 04:48 -5.53559 -47.46624 428 ft 10 kts 284°
2026-04-26 04:49 -5.53578 -47.46661 434 ft 6 kts 166°
2026-04-26 04:49 -5.53570 -47.46608 425 ft 19 kts 61°
2026-04-26 04:49 -5.53420 -47.46400 434 ft 64 kts 54°
2026-04-26 04:49 -5.53046 -47.45883 432 ft 115 kts 54°
2026-04-26 04:50 -5.52499 -47.45231 807 ft 119 kts 47°
2026-04-26 04:50 -5.51912 -47.44647 1286 ft 120 kts 45°
2026-04-26 04:50 -5.51294 -47.43991 1646 ft 134 kts 43°
2026-04-26 04:50 -5.50617 -47.43385 2258 ft 125 kts 47°
2026-04-26 04:51 -5.50156 -47.42610 2659 ft 136 kts 68°
2026-04-26 04:51 -5.49850 -47.41656 2901 ft 153 kts 90°
2026-04-26 04:51 -5.49995 -47.40599 3336 ft 151 kts 96°
2026-04-26 04:51 -5.50073 -47.39536 3636 ft 153 kts 92°
2026-04-26 04:52 -5.50081 -47.38480 3986 ft 152 kts 89°
2026-04-26 04:52 -5.50039 -47.37423 4351 ft 151 kts 88°
2026-04-26 04:52 -5.49984 -47.36368 4711 ft 151 kts 88°
2026-04-26 04:52 -5.49930 -47.35310 5038 ft 152 kts 88°
2026-04-26 04:53 -5.49876 -47.34246 5370 ft 153 kts 88°
2026-04-26 04:53 -5.49819 -47.33177 5689 ft 154 kts 88°
2026-04-26 04:53 -5.49766 -47.32103 6014 ft 155 kts 88°
2026-04-26 04:53 -5.49714 -47.31021 6327 ft 156 kts 88°
2026-04-26 04:54 -5.49664 -47.29932 6622 ft 157 kts 88°
2026-04-26 04:54 -5.49614 -47.28833 6909 ft 158 kts 88°
2026-04-26 04:54 -5.49563 -47.27731 7181 ft 161 kts 88°
2026-04-26 04:54 -5.49514 -47.26542 7195 ft 179 kts 88°
2026-04-26 04:55 -5.49469 -47.25274 7401 ft 183 kts 88°
2026-04-26 04:55 -5.49421 -47.23992 7654 ft 184 kts 88°
2026-04-26 04:55 -5.49366 -47.22703 7922 ft 185 kts 88°
2026-04-26 04:55 -5.49306 -47.21411 8177 ft 186 kts 88°
2026-04-26 04:56 -5.49243 -47.20108 8436 ft 187 kts 88°
2026-04-26 04:56 -5.49182 -47.18816 8687 ft 188 kts 88°
2026-04-26 04:56 -5.49120 -47.17498 8934 ft 189 kts 88°
2026-04-26 04:56 -5.49060 -47.16180 9248 ft 185 kts 87°
2026-04-26 04:57 -5.49000 -47.14911 9599 ft 181 kts 87°
2026-04-26 04:57 -5.48939 -47.13644 9875 ft 182 kts 88°
2026-04-26 04:57 -5.48882 -47.12377 10114 ft 182 kts 88°
2026-04-26 04:57 -5.48826 -47.11102 10356 ft 183 kts 88°
2026-04-26 04:58 -5.48770 -47.09826 10597 ft 183 kts 88°
2026-04-26 04:58 -5.48712 -47.08547 10840 ft 184 kts 88°
2026-04-26 04:58 -5.48654 -47.07261 11081 ft 184 kts 88°
2026-04-26 04:58 -5.48594 -47.05975 11315 ft 185 kts 88°
2026-04-26 04:59 -5.48535 -47.04637 11366 ft 197 kts 88°
2026-04-26 04:59 -5.48474 -47.03260 11569 ft 198 kts 88°
2026-04-26 04:59 -5.48411 -47.01874 11791 ft 199 kts 88°
2026-04-26 04:59 -5.48344 -47.00486 12006 ft 199 kts 88°
2026-04-26 05:00 -5.48278 -46.99097 12223 ft 200 kts 88°
2026-04-26 05:00 -5.48213 -46.97706 12432 ft 200 kts 88°
2026-04-26 05:00 -5.48148 -46.96308 12622 ft 201 kts 88°
2026-04-26 05:00 -5.48085 -46.94923 12824 ft 201 kts 88°
2026-04-26 05:01 -5.48020 -46.93520 13016 ft 202 kts 88°
2026-04-26 05:01 -5.47956 -46.92111 13197 ft 202 kts 88°
2026-04-26 05:01 -5.47890 -46.90700 13390 ft 203 kts 88°
2026-04-26 05:01 -5.47823 -46.89282 13599 ft 203 kts 88°
2026-04-26 05:02 -5.47758 -46.87863 13784 ft 204 kts 88°
2026-04-26 05:02 -5.47693 -46.86438 13951 ft 204 kts 88°
2026-04-26 05:02 -5.47627 -46.85010 14115 ft 205 kts 88°
2026-04-26 05:02 -5.47561 -46.83578 14266 ft 206 kts 88°
2026-04-26 05:03 -5.47497 -46.82163 14422 ft 206 kts 88°
2026-04-26 05:03 -5.47430 -46.80722 14578 ft 207 kts 88°
2026-04-26 05:03 -5.47364 -46.79278 14725 ft 207 kts 88°
2026-04-26 05:03 -5.47296 -46.77828 14868 ft 208 kts 88°
2026-04-26 05:04 -5.47228 -46.76375 15014 ft 208 kts 88°
2026-04-26 05:04 -5.47160 -46.74920 15147 ft 209 kts 88°
2026-04-26 05:04 -5.47094 -46.73492 15364 ft 204 kts 88°
2026-04-26 05:04 -5.47026 -46.72096 15639 ft 199 kts 87°
2026-04-26 05:05 -5.46958 -46.70707 15823 ft 199 kts 88°
2026-04-26 05:05 -5.46895 -46.69315 15988 ft 200 kts 88°
2026-04-26 05:05 -5.46832 -46.67880 15991 ft 210 kts 88°
2026-04-26 05:05 -5.46769 -46.66398 16089 ft 213 kts 88°
2026-04-26 05:06 -5.46701 -46.64905 16221 ft 214 kts 88°
2026-04-26 05:06 -5.46630 -46.63414 16354 ft 214 kts 87°
2026-04-26 05:06 -5.46559 -46.61938 16481 ft 215 kts 87°
2026-04-26 05:06 -5.46487 -46.60435 16613 ft 215 kts 87°
2026-04-26 05:07 -5.46416 -46.58931 16740 ft 216 kts 87°
2026-04-26 05:07 -5.46345 -46.57423 16866 ft 216 kts 87°
2026-04-26 05:07 -5.46275 -46.55917 16979 ft 217 kts 87°
2026-04-26 05:07 -5.46204 -46.54404 17099 ft 217 kts 87°
2026-04-26 05:08 -5.46134 -46.52891 17217 ft 217 kts 87°
2026-04-26 05:08 -5.46064 -46.51374 17329 ft 218 kts 87°
2026-04-26 05:08 -5.45993 -46.49871 17428 ft 218 kts 87°
2026-04-26 05:08 -5.45921 -46.48328 17538 ft 219 kts 87°
2026-04-26 05:09 -5.45848 -46.46821 17670 ft 219 kts 87°
2026-04-26 05:09 -5.45776 -46.45291 17801 ft 220 kts 87°
2026-04-26 05:09 -5.45705 -46.43753 17924 ft 220 kts 87°
2026-04-26 05:09 -5.45633 -46.42216 18049 ft 221 kts 87°
2026-04-26 05:10 -5.45561 -46.40671 18164 ft 221 kts 87°
2026-04-26 05:10 -5.45489 -46.39125 18270 ft 222 kts 87°
2026-04-26 05:10 -5.45416 -46.37578 18363 ft 222 kts 87°
2026-04-26 05:10 -5.45342 -46.36027 18460 ft 222 kts 87°
2026-04-26 05:11 -5.45269 -46.34478 18548 ft 223 kts 87°
2026-04-26 05:11 -5.45196 -46.32921 18630 ft 223 kts 87°
2026-04-26 05:11 -5.45124 -46.31364 18725 ft 223 kts 87°
2026-04-26 05:11 -5.45051 -46.29808 18814 ft 223 kts 87°
2026-04-26 05:12 -5.44977 -46.28248 18898 ft 224 kts 87°
2026-04-26 05:12 -5.44903 -46.26705 18969 ft 224 kts 87°
2026-04-26 05:12 -5.44828 -46.25137 19053 ft 225 kts 87°
2026-04-26 05:12 -5.44753 -46.23567 19126 ft 225 kts 87°
2026-04-26 05:13 -5.44680 -46.21995 19199 ft 225 kts 87°
2026-04-26 05:13 -5.44605 -46.20421 19270 ft 226 kts 87°
2026-04-26 05:13 -5.44531 -46.18847 19331 ft 226 kts 87°
2026-04-26 05:13 -5.44457 -46.17290 19401 ft 226 kts 87°
2026-04-26 05:14 -5.44383 -46.15714 19471 ft 226 kts 87°
2026-04-26 05:14 -5.44308 -46.14134 19538 ft 227 kts 87°
2026-04-26 05:14 -5.44234 -46.12554 19609 ft 227 kts 87°
2026-04-26 05:14 -5.44158 -46.10971 19668 ft 227 kts 87°
2026-04-26 05:15 -5.44082 -46.09385 19729 ft 227 kts 87°
2026-04-26 05:15 -5.44008 -46.07802 19788 ft 227 kts 87°
2026-04-26 05:15 -5.43931 -46.06213 19846 ft 228 kts 87°
2026-04-26 05:15 -5.43853 -46.04621 19935 ft 228 kts 87°
2026-04-26 05:16 -5.43777 -46.03032 20016 ft 228 kts 87°
2026-04-26 05:16 -5.43704 -46.01459 20101 ft 229 kts 87°
2026-04-26 05:16 -5.43628 -45.99865 20177 ft 229 kts 87°
2026-04-26 05:16 -5.43553 -45.98263 20255 ft 229 kts 87°
2026-04-26 05:17 -5.43477 -45.96663 20332 ft 230 kts 87°
2026-04-26 05:17 -5.43400 -45.95058 20404 ft 230 kts 87°
2026-04-26 05:17 -5.43324 -45.93456 20485 ft 230 kts 87°
2026-04-26 05:17 -5.43247 -45.91844 20543 ft 230 kts 87°
2026-04-26 05:18 -5.43170 -45.90238 20610 ft 231 kts 87°
2026-04-26 05:18 -5.43093 -45.88633 20677 ft 231 kts 87°
2026-04-26 05:18 -5.43017 -45.87019 20741 ft 231 kts 87°
2026-04-26 05:18 -5.42939 -45.85409 20811 ft 231 kts 87°
2026-04-26 05:19 -5.42860 -45.83794 20866 ft 232 kts 87°
2026-04-26 05:19 -5.42783 -45.82200 20922 ft 232 kts 87°
2026-04-26 05:19 -5.42705 -45.80583 20976 ft 232 kts 87°
2026-04-26 05:19 -5.42628 -45.78961 21031 ft 232 kts 87°
2026-04-26 05:20 -5.42552 -45.77338 21083 ft 233 kts 87°
2026-04-26 05:20 -5.42474 -45.75712 21134 ft 233 kts 87°
2026-04-26 05:20 -5.42395 -45.74084 21185 ft 233 kts 87°
2026-04-26 05:20 -5.42316 -45.72456 21235 ft 233 kts 87°
2026-04-26 05:21 -5.42238 -45.70845 21283 ft 234 kts 87°
2026-04-26 05:21 -5.42160 -45.69217 21332 ft 234 kts 87°
2026-04-26 05:21 -5.42082 -45.67580 21376 ft 234 kts 87°
2026-04-26 05:21 -5.42003 -45.65951 21418 ft 234 kts 87°
2026-04-26 05:22 -5.41924 -45.64317 21458 ft 234 kts 87°
2026-04-26 05:22 -5.41845 -45.62682 21501 ft 234 kts 87°
2026-04-26 05:22 -5.41766 -45.61047 21540 ft 234 kts 87°
2026-04-26 05:22 -5.41687 -45.59411 21572 ft 235 kts 87°
2026-04-26 05:23 -5.41608 -45.57772 21611 ft 235 kts 86°
2026-04-26 05:23 -5.41528 -45.56132 21649 ft 235 kts 87°
2026-04-26 05:23 -5.41450 -45.54513 21678 ft 235 kts 87°
2026-04-26 05:23 -5.41370 -45.52872 21709 ft 236 kts 87°
2026-04-26 05:24 -5.41291 -45.51223 21737 ft 236 kts 87°
2026-04-26 05:24 -5.41211 -45.49586 21811 ft 234 kts 86°
2026-04-26 05:24 -5.41130 -45.47899 21441 ft 251 kts 87°
2026-04-26 05:24 -5.41045 -45.46091 21116 ft 264 kts 87°
2026-04-26 05:25 -5.40987 -45.44873 21051 ft 264 kts 87°
2026-04-26 05:25 -5.40897 -45.43030 20995 ft 264 kts 86°
2026-04-26 05:25 -5.40806 -45.41195 20959 ft 262 kts 86°
2026-04-26 05:25 -5.40714 -45.39373 20943 ft 260 kts 87°
2026-04-26 05:26 -5.40625 -45.37567 20935 ft 258 kts 87°
2026-04-26 05:26 -5.40538 -45.35770 20934 ft 257 kts 87°
2026-04-26 05:26 -5.40452 -45.33983 20933 ft 255 kts 87°
2026-04-26 05:26 -5.40365 -45.32207 20932 ft 254 kts 87°
2026-04-26 05:27 -5.40280 -45.30436 20930 ft 253 kts 87°
2026-04-26 05:27 -5.40194 -45.28699 20934 ft 252 kts 87°
2026-04-26 05:27 -5.40109 -45.26944 20932 ft 251 kts 86°
2026-04-26 05:27 -5.40023 -45.25194 20930 ft 251 kts 86°
2026-04-26 05:28 -5.39938 -45.23447 20929 ft 250 kts 86°
2026-04-26 05:28 -5.39851 -45.21702 20931 ft 250 kts 86°
2026-04-26 05:28 -5.39767 -45.19963 20931 ft 250 kts 86°
2026-04-26 05:28 -5.39681 -45.18215 20930 ft 249 kts 86°
2026-04-26 05:29 -5.39597 -45.16501 20930 ft 249 kts 86°
2026-04-26 05:29 -5.39512 -45.14763 20931 ft 249 kts 86°
2026-04-26 05:29 -5.39427 -45.13031 20930 ft 249 kts 86°
2026-04-26 05:29 -5.39342 -45.11297 20930 ft 248 kts 86°
2026-04-26 05:30 -5.39257 -45.09567 20930 ft 248 kts 86°
2026-04-26 05:30 -5.39172 -45.07833 20930 ft 248 kts 86°
2026-04-26 05:30 -5.39086 -45.06101 20930 ft 248 kts 86°
2026-04-26 05:30 -5.39002 -45.04374 20930 ft 248 kts 86°
2026-04-26 05:31 -5.38916 -45.02645 20932 ft 248 kts 86°
2026-04-26 05:31 -5.38832 -45.00936 20930 ft 248 kts 86°
2026-04-26 05:31 -5.38747 -44.99210 20930 ft 248 kts 86°
2026-04-26 05:31 -5.38661 -44.97485 20932 ft 248 kts 86°
2026-04-26 05:32 -5.38576 -44.95757 20931 ft 248 kts 86°
2026-04-26 05:32 -5.38491 -44.94034 20931 ft 248 kts 86°
2026-04-26 05:32 -5.38406 -44.92306 20928 ft 248 kts 86°
2026-04-26 05:32 -5.38321 -44.90579 20930 ft 248 kts 86°
2026-04-26 05:33 -5.38235 -44.88847 20928 ft 248 kts 86°
2026-04-26 05:33 -5.38149 -44.87116 20928 ft 248 kts 86°
2026-04-26 05:33 -5.38063 -44.85388 20930 ft 248 kts 86°
2026-04-26 05:33 -5.37978 -44.83659 20931 ft 248 kts 86°
2026-04-26 05:34 -5.37892 -44.81927 20931 ft 248 kts 86°
2026-04-26 05:34 -5.37806 -44.80196 20930 ft 248 kts 86°
2026-04-26 05:34 -5.37721 -44.78470 20926 ft 248 kts 86°
2026-04-26 05:34 -5.37634 -44.76740 20927 ft 248 kts 86°
2026-04-26 05:35 -5.37549 -44.75010 20927 ft 248 kts 86°
2026-04-26 05:35 -5.37462 -44.73279 20926 ft 248 kts 86°
2026-04-26 05:35 -5.37375 -44.71550 20932 ft 248 kts 86°
2026-04-26 05:35 -5.37290 -44.69818 20932 ft 248 kts 86°
2026-04-26 05:36 -5.37203 -44.68087 20931 ft 248 kts 86°
2026-04-26 05:36 -5.37117 -44.66356 20929 ft 248 kts 86°
2026-04-26 05:36 -5.37033 -44.64651 20929 ft 248 kts 86°
2026-04-26 05:36 -5.36946 -44.62920 20928 ft 248 kts 86°
2026-04-26 05:37 -5.36860 -44.61186 20929 ft 248 kts 86°
2026-04-26 05:37 -5.36774 -44.59455 20927 ft 248 kts 86°
2026-04-26 05:37 -5.36686 -44.57719 20928 ft 248 kts 86°
2026-04-26 05:37 -5.36600 -44.55987 20932 ft 249 kts 86°
2026-04-26 05:38 -5.36512 -44.54253 20931 ft 249 kts 86°
2026-04-26 05:38 -5.36425 -44.52517 20927 ft 249 kts 86°
2026-04-26 05:38 -5.36339 -44.50782 20928 ft 249 kts 86°
2026-04-26 05:38 -5.36252 -44.49049 20927 ft 249 kts 86°
2026-04-26 05:39 -5.36165 -44.47317 20927 ft 249 kts 86°
2026-04-26 05:39 -5.36078 -44.45603 20929 ft 249 kts 87°
2026-04-26 05:39 -5.35992 -44.43871 20931 ft 249 kts 86°
2026-04-26 05:39 -5.35905 -44.42138 20929 ft 248 kts 86°
2026-04-26 05:40 -5.35818 -44.40406 20934 ft 249 kts 86°
2026-04-26 05:40 -5.35731 -44.38673 20931 ft 249 kts 86°
2026-04-26 05:40 -5.35644 -44.36937 20927 ft 249 kts 86°
2026-04-26 05:40 -5.35557 -44.35199 20929 ft 249 kts 86°
2026-04-26 05:41 -5.35469 -44.33463 20929 ft 249 kts 86°
2026-04-26 05:41 -5.35381 -44.31729 20929 ft 249 kts 86°
2026-04-26 05:41 -5.35293 -44.29994 20930 ft 249 kts 86°
2026-04-26 05:41 -5.35205 -44.28258 20931 ft 249 kts 87°
2026-04-26 05:42 -5.35118 -44.26521 20928 ft 249 kts 87°
2026-04-26 05:42 -5.35030 -44.24788 20930 ft 249 kts 87°
2026-04-26 05:42 -5.34943 -44.23050 20931 ft 249 kts 86°
2026-04-26 05:42 -5.34855 -44.21314 20930 ft 249 kts 86°
2026-04-26 05:43 -5.34767 -44.19579 20932 ft 249 kts 87°
2026-04-26 05:43 -5.34679 -44.17843 20930 ft 249 kts 87°
2026-04-26 05:43 -5.34591 -44.16104 20932 ft 249 kts 87°
2026-04-26 05:43 -5.34505 -44.14387 20931 ft 249 kts 87°
2026-04-26 05:44 -5.34416 -44.12648 20931 ft 249 kts 87°
2026-04-26 05:44 -5.34327 -44.10905 20934 ft 249 kts 87°
2026-04-26 05:44 -5.34239 -44.09165 20931 ft 249 kts 87°
2026-04-26 05:44 -5.34150 -44.07426 20932 ft 249 kts 87°
2026-04-26 05:45 -5.34061 -44.05686 20930 ft 249 kts 87°
2026-04-26 05:45 -5.33973 -44.03947 20931 ft 249 kts 87°
2026-04-26 05:45 -5.33885 -44.02209 20932 ft 249 kts 87°
2026-04-26 05:45 -5.33797 -44.00471 20931 ft 249 kts 87°
2026-04-26 05:46 -5.33709 -43.98736 20929 ft 249 kts 87°
2026-04-26 05:46 -5.33619 -43.96996 20931 ft 249 kts 87°
2026-04-26 05:46 -5.33531 -43.95259 20932 ft 249 kts 87°
2026-04-26 05:46 -5.33443 -43.93524 20933 ft 249 kts 87°
2026-04-26 05:47 -5.33355 -43.91790 20930 ft 249 kts 87°
2026-04-26 05:47 -5.33267 -43.90074 20930 ft 249 kts 87°
2026-04-26 05:47 -5.33177 -43.88340 20934 ft 249 kts 87°
2026-04-26 05:47 -5.33089 -43.86606 20928 ft 249 kts 87°
2026-04-26 05:48 -5.32999 -43.84864 20932 ft 249 kts 87°
2026-04-26 05:48 -5.32910 -43.83126 20930 ft 249 kts 87°
2026-04-26 05:48 -5.32822 -43.81392 20931 ft 249 kts 87°
2026-04-26 05:48 -5.32733 -43.79642 20704 ft 258 kts 87°
2026-04-26 05:49 -5.32640 -43.77771 20178 ft 278 kts 87°
2026-04-26 05:49 -5.32435 -43.73747 19388 ft 296 kts 87°
2026-04-26 05:49 -5.32326 -43.71674 19193 ft 296 kts 87°
2026-04-26 05:50 -5.32218 -43.69618 19027 ft 295 kts 87°
2026-04-26 05:50 -5.32112 -43.67565 18856 ft 294 kts 87°
2026-04-26 05:50 -5.32007 -43.65517 18680 ft 293 kts 87°
2026-04-26 05:50 -5.31906 -43.63481 18326 ft 292 kts 87°
2026-04-26 05:51 -5.31803 -43.61452 17943 ft 291 kts 87°
2026-04-26 05:51 -5.31697 -43.59454 17546 ft 289 kts 87°
2026-04-26 05:51 -5.31589 -43.57439 17167 ft 288 kts 87°
2026-04-26 05:51 -5.31484 -43.55439 16806 ft 286 kts 87°
2026-04-26 05:52 -5.31381 -43.53449 16457 ft 285 kts 87°
2026-04-26 05:52 -5.31279 -43.51469 16123 ft 283 kts 87°
2026-04-26 05:52 -5.31179 -43.49500 15789 ft 282 kts 87°
2026-04-26 05:52 -5.31077 -43.47540 15475 ft 280 kts 87°
2026-04-26 05:53 -5.30976 -43.45595 15141 ft 279 kts 87°
2026-04-26 05:53 -5.30875 -43.43647 14816 ft 278 kts 87°
2026-04-26 05:53 -5.30776 -43.41728 14484 ft 277 kts 88°
2026-04-26 05:53 -5.30678 -43.39797 14142 ft 276 kts 88°
2026-04-26 05:54 -5.30578 -43.37877 13809 ft 275 kts 88°
2026-04-26 05:54 -5.30477 -43.35970 13455 ft 273 kts 88°
2026-04-26 05:54 -5.30378 -43.34068 13103 ft 271 kts 88°
2026-04-26 05:54 -5.30281 -43.32182 12767 ft 270 kts 88°
2026-04-26 05:55 -5.30186 -43.30312 12315 ft 267 kts 88°
2026-04-26 05:55 -5.30093 -43.28478 11801 ft 266 kts 87°
2026-04-26 05:55 -5.29996 -43.26628 11305 ft 265 kts 87°
2026-04-26 05:55 -5.29897 -43.24790 10912 ft 263 kts 87°
2026-04-26 05:56 -5.29801 -43.22960 10506 ft 261 kts 87°
2026-04-26 05:56 -5.29706 -43.21147 10101 ft 259 kts 87°
2026-04-26 05:56 -5.29613 -43.19344 9703 ft 258 kts 87°
2026-04-26 05:56 -5.29519 -43.17556 9295 ft 256 kts 87°
2026-04-26 05:57 -5.29425 -43.15784 8868 ft 254 kts 88°
2026-04-26 05:57 -5.29332 -43.14021 8468 ft 252 kts 88°
2026-04-26 05:57 -5.29240 -43.12276 8071 ft 249 kts 88°
2026-04-26 05:57 -5.29149 -43.10546 7687 ft 247 kts 88°
2026-04-26 05:58 -5.29060 -43.08855 7321 ft 244 kts 88°
2026-04-26 05:58 -5.28971 -43.07159 6956 ft 242 kts 88°
2026-04-26 05:58 -5.28883 -43.05479 6596 ft 240 kts 88°
2026-04-26 05:58 -5.28794 -43.03815 6233 ft 237 kts 88°
2026-04-26 05:59 -5.28708 -43.02158 5791 ft 237 kts 88°
2026-04-26 05:59 -5.28622 -43.00506 5375 ft 236 kts 88°
2026-04-26 05:59 -5.28538 -42.98861 4959 ft 236 kts 88°
2026-04-26 05:59 -5.28453 -42.97220 4552 ft 235 kts 88°
2026-04-26 06:00 -5.28367 -42.95597 4313 ft 227 kts 88°
2026-04-26 06:00 -5.28285 -42.94047 4145 ft 219 kts 88°
2026-04-26 06:00 -5.28203 -42.92549 4027 ft 210 kts 88°
2026-04-26 06:00 -5.28127 -42.91139 3982 ft 201 kts 88°
2026-04-26 06:01 -5.28053 -42.89756 3954 ft 192 kts 88°
2026-04-26 06:01 -5.27731 -42.88539 3951 ft 179 kts 66°
2026-04-26 06:01 -5.27160 -42.87443 3824 ft 175 kts 63°
2026-04-26 06:01 -5.26582 -42.86382 3678 ft 169 kts 63°
2026-04-26 06:02 -5.26041 -42.85380 3534 ft 159 kts 64°
2026-04-26 06:02 -5.25542 -42.84420 3395 ft 152 kts 64°
2026-04-26 06:02 -5.25074 -42.83486 3270 ft 148 kts 65°
2026-04-26 06:02 -5.24621 -42.82571 3150 ft 145 kts 65°
2026-04-26 06:03 -5.24187 -42.81691 3045 ft 134 kts 65°
2026-04-26 06:03 -5.23776 -42.80889 2919 ft 125 kts 56°
2026-04-26 06:03 -5.23023 -42.80564 2803 ft 121 kts
2026-04-26 06:03 -5.22170 -42.80596 2700 ft 124 kts 357°
2026-04-26 06:04 -5.21319 -42.80681 2594 ft 124 kts 354°
2026-04-26 06:04 -5.20462 -42.80787 2491 ft 124 kts 353°
2026-04-26 06:04 -5.19609 -42.80894 2381 ft 123 kts 353°
2026-04-26 06:04 -5.18756 -42.80999 2276 ft 123 kts 353°
2026-04-26 06:05 -5.17907 -42.81102 2171 ft 123 kts 353°
2026-04-26 06:05 -5.17056 -42.81203 2059 ft 123 kts 354°
2026-04-26 06:05 -5.16217 -42.81300 2000 ft 119 kts 354°
2026-04-26 06:05 -5.15400 -42.81395 1921 ft 119 kts 354°
2026-04-26 06:06 -5.14559 -42.81489 1762 ft 123 kts 354°
2026-04-26 06:06 -5.13707 -42.81578 1598 ft 123 kts 354°
2026-04-26 06:06 -5.12862 -42.81659 1418 ft 121 kts 355°
2026-04-26 06:06 -5.12033 -42.81739 1265 ft 119 kts 354°
2026-04-26 06:07 -5.11212 -42.81815 1095 ft 118 kts 354°
2026-04-26 06:07 -5.10408 -42.81891 940 ft 118 kts 353°
2026-04-26 06:07 -5.09588 -42.81973 781 ft 119 kts 353°
2026-04-26 06:07 -5.08772 -42.82092 618 ft 119 kts 350°
2026-04-26 06:08 -5.07938 -42.82179 456 ft 121 kts 353°
2026-04-26 06:08 -5.07098 -42.82263 284 ft 122 kts 352°
2026-04-26 06:08 -5.06289 -42.82357 215 ft 108 kts 354°
2026-04-26 06:08 -5.05925 -42.82390 213 ft 25 kts 351°
2026-04-26 06:09 -5.05864 -42.82394 215 ft 1 kts 46°
2026-04-26 06:09 -5.05873 -42.82387 215 ft 4 kts 155°
2026-04-26 06:09 -5.05934 -42.82381 220 ft 13 kts 175°
2026-04-26 06:09 -5.06051 -42.82368 216 ft 19 kts 174°
2026-04-26 06:10 -5.06180 -42.82354 221 ft 17 kts 174°
2026-04-26 06:10 -5.06278 -42.82346 221 ft 11 kts 173°
2026-04-26 06:10 -5.06346 -42.82331 219 ft 9 kts 153°
2026-04-26 06:10 -5.06370 -42.82287 216 ft 6 kts 89°
2026-04-26 06:11 -5.06366 -42.82240 215 ft 7 kts 86°
2026-04-26 06:11 -5.06381 -42.82214 212 ft 3 kts 150°
2026-04-26 06:11 -5.06403 -42.82209 212 ft 3 kts 172°
2026-04-26 06:11 -5.06424 -42.82206 214 ft 3 kts 173°
2026-04-26 06:12 -5.06442 -42.82204 213 ft 2 kts 175°
2026-04-26 06:12 -5.06448 -42.82204 213 ft 0 kts 168°
2026-04-26 06:12 -5.06451 -42.82202 213 ft 2 kts 166°
2026-04-26 06:13 -5.06458 -42.82199 217 ft 0 kts 156°
2026-04-26 06:13 -5.06455 -42.82191 216 ft 2 kts 67°
2026-04-26 06:13 -5.06448 -42.82161 214 ft 2 kts 82°
2026-04-26 06:13 -5.06447 -42.82158 214 ft 0 kts 81°